Torna al catalogo

NOAA 16 DEB

AttivoSSO
NORAD 42418·DEBRIS·🇺🇸 United States

Lanciato Sep 21, 2000 da Vandenberg Space Force Base

Loading…

Prossimi Passaggi (prossime 24 ore)

TLE

AggiornatoSource: Space-Track

Epoca: Sep 14, 2026, 10:36 UTC

1 42418U 00055TN  26257.44168017  .00002589  00000-0  96441-3 0  9993
2 42418  98.6652 336.3019 0009273 244.0920 115.9308 14.32848311544469

Traccia NOAA 16 DEB in tempo reale con AllMySat

Download on the App Store